Location: Newark
(30.3239°N, 81.6375°W)
Time: 17:08:25
(UTC+00:00)

Envisat - Visible Passes

Search period start: 24 January 2020 00:00
Search period end: 03 February 2020 00:00
Orbit: 764 x 766 km, 98.1° (Epoch: 23 January)

Date Brightness Start Highest point End Pass type
(mag) Time Alt. Az. Time Alt. Az. Time Alt. Az.
24 Jan 3.4 11:55:08 10° NNE 12:00:13 73° ESE 12:05:16 10° S visible
25 Jan 6.2 00:45:43 10° WSW 00:47:59 13° W 00:50:16 10° WNW visible
25 Jan 5.2 11:18:59 10° NE 11:23:22 29° E 11:27:43 10° SSE visible
26 Jan 4.9 00:06:29 10° SSW 00:11:00 33° W 00:15:33 10° NW visible
26 Jan 6.4 10:44:54 10° ENE 10:46:21 11° E 10:47:48 10° ESE visible
26 Jan 3.1 23:29:07 10° S 23:34:11 83° WSW 23:39:17 10° NNW visible
27 Jan 3.9 11:43:56 10° NNE 11:48:55 55° E 11:53:52 10° S visible
28 Jan 5.9 00:33:19 10° SW 00:36:37 17° W 00:39:55 10° NW visible
28 Jan 5.7 11:08:07 10° NE 11:12:01 22° E 11:15:54 10° SE visible
28 Jan 4.4 23:54:53 10° S 23:59:40 43° W 00:04:30 10° NNW visible
29 Jan 3.0 23:17:51 10° SSE 23:22:55 76° ENE 23:27:59 10° N visible
30 Jan 4.5 11:32:48 10° NNE 11:37:36 42° E 11:42:22 10° S visible
31 Jan 5.6 00:21:19 10° SSW 00:25:15 23° W 00:29:12 10° NW visible
31 Jan 6.1 10:57:26 10° NE 11:00:39 17° E 11:03:52 10° SE visible
31 Jan 3.8 23:43:24 10° S 23:48:22 57° W 23:53:22 10° NNW visible
02 Feb 6.4 00:49:16 10° WSW 00:50:55 11° W 00:52:35 10° WNW visible
02 Feb 5.1 11:21:46 10° NE 11:26:17 32° E 11:30:46 10° SSE visible
